Location: LewisvilleTX
(33.0462°N, 96.9942°W)
Time: 07:02:32
(UTC+00:00)

Envisat - Pass Details

Date: 29 September 2021
Orbit: 764 x 766 km, 98.2° (Epoch: 23 October)

Event Time Altitude Azimuth Distance (km) Brightness Sun altitude
Rises 11:31:48 0° 12° (NNE) 3,233 6.5 -11.1°
Reaches altitude 10° 11:34:07 10° 13° (NNE) 2,304 5.7 -10.7°
Maximum altitude 11:39:13 87° 103° (ESE) 769 3.0 -9.6°
Drops below altitude 10° 11:44:16 10° 193° (SSW) 2,290 5.3 -8.5°
Sets 11:46:33 0° 193° (SSW) 3,212 6.1 -8.1°
